Vorticity
7 6 3 2 4 7 6 6 5 6 7 6 9 8 10 10 9 10 8 10 5 5 14 14 15 10 6 8 9 13 9 12 19 6 2 9 9 7 5 5 3 3 4 4 4 3 3 3 3 5 5 4 4 4 4 5 5 5 4 4 4 3 4 4 4 5 5 5 6 5 5 4 4 2 1 2 2 3 4 6 7 8 9 10 10 10 9 8
7 4 3 3 4 8 5 5 6 6 7 7 9 9 9 8 9 11 7 8 7 9 18 21 20 12 8 9 7 13 7 13 26 8 3 12 8 8 5 4 4 3 5 4 4 3 3 3 3 5 4 4 4 3 4 4 5 4 3 4 3 3 3 4 4 5 5 6 6 6 6 5 4 2 1 2 1 1 3 4 5 6 8 9 10 10 10 9
6 3 2 5 5 7 6 5 6 6 6 7 9 9 8 8 8 10 6 5 8 10 17 22 23 18 14 9 5 8 5 19 32 10 4 9 6 10 5 4 5 3 5 4 4 4 3 3 3 5 5 5 4 4 4 4 4 3 3 3 3 3 3 4 4 5 5 5 5 6 6 5 5 4 2 1 1 2 2 2 3 4 5 7 8 9 9 9
4 3 3 5 6 6 5 6 7 6 6 8 9 9 8 8 9 7 4 6 9 9 15 18 18 21 18 12 8 3 6 27 30 7 3 7 5 9 6 4 4 3 4 4 4 3 3 4 4 5 5 5 4 4 4 4 4 2 3 3 3 3 3 3 4 4 4 5 6 5 5 6 6 5 4 2 2 1 0 1 2 2 3 3 5 6 7 8
2 4 4 4 6 5 6 6 8 6 6 9 8 10 9 6 8 5 2 9 11 7 11 13 14 21 19 15 12 6 17 29 22 7 3 5 6 7 5 4 3 3 4 4 4 3 3 4 4 4 4 5 4 4 4 3 3 3 3 3 3 3 3 3 3 3 3 5 5 5 6 6 6 6 5 4 3 2 1 1 1 1 1 1 2 3 4 5
2 3 4 5 6 5 7 6 8 6 6 9 8 10 9 6 7 3 5 11 10 6 8 10 12 20 20 18 13 13 25 24 18 14 4 4 8 6 4 3 3 3 3 4 4 4 3 3 4 4 4 4 4 4 4 3 3 2 4 4 3 4 4 3 3 3 2 4 4 4 5 6 5 5 6 6 5 4 3 2 1 1 1 1 1 1 2 3
2 4 4 5 6 5 7 7 6 6 7 9 10 10 7 7 5 1 10 14 7 4 8 11 11 19 22 18 16 23 25 18 20 14 3 8 9 5 4 3 4 4 4 4 5 4 3 3 4 4 4 5 3 4 4 4 4 2 4 4 3 4 4 3 3 3 2 2 4 3 3 5 5 5 6 6 6 6 5 4 3 2 1 2 1 1 2 1
2 4 4 4 6 6 6 8 6 5 8 8 10 11 7 6 2 5 12 11 7 4 9 13 14 21 24 20 22 27 19 13 16 7 5 12 8 5 4 3 4 4 5 5 5 4 4 4 4 4 4 4 3 4 4 4 4 3 4 4 3 3 4 3 2 3 2 2 3 2 2 3 3 4 5 4 6 6 6 6 5 4 3 3 2 2 2 2
3 3 4 5 5 7 7 8 7 6 8 9 12 10 8 5 2 11 13 8 9 8 11 13 17 23 23 24 24 19 12 12 12 4 8 11 7 6 3 3 4 3 6 5 5 4 4 4 3 4 3 3 4 3 4 3 3 4 4 4 3 3 4 3 2 2 2 2 2 2 2 3 3 3 3 3 5 5 5 6 6 6 5 4 4 3 3 3
2 3 3 5 5 7 8 8 7 7 8 11 13 9 7 4 5 13 9 8 12 9 11 13 19 21 21 27 19 11 9 10 11 6 9 10 7 6 3 4 3 4 6 4 5 4 3 3 3 3 2 3 3 2 4 3 2 3 3 4 3 3 3 3 2 2 2 3 2 3 3 3 3 2 2 3 3 4 5 5 5 5 6 6 5 5 5 4
2 4 2 5 6 7 8 8 7 7 10 13 12 8 6 4 10 13 7 12 13 8 11 15 18 16 21 24 9 10 11 7 13 9 8 10 8 7 4 4 3 5 6 4 6 4 4 4 3 2 2 3 3 2 3 2 2 2 2 4 4 3 3 2 3 3 3 3 2 2 3 3 3 2 2 3 3 3 3 4 5 5 5 6 6 6 5 5
2 4 3 6 6 7 8 7 8 7 11 14 11 7 5 9 15 10 8 14 9 7 12 14 16 13 17 14 4 14 10 5 15 10 9 12 8 8 5 4 4 4 5 5 6 4 4 4 3 4 4 3 2 3 3 2 2 2 2 3 3 3 3 2 3 4 4 5 4 2 3 3 2 3 3 3 3 3 3 3 4 5 5 5 6 6 6 6
4 3 2 6 5 7 8 6 6 6 11 14 12 5 5 17 17 6 10 14 6 7 12 11 13 13 10 8 9 15 8 7 15 9 11 12 8 8 5 5 4 4 5 4 5 5 4 4 4 5 4 2 3 3 3 3 3 2 2 2 3 2 3 3 2 4 4 4 5 4 5 3 2 4 3 3 3 3 3 3 3 4 4 5 5 7 7 6
4 3 1 5 5 7 7 8 5 5 13 14 11 5 8 21 14 5 11 10 5 5 10 9 11 12 7 8 12 11 7 10 12 8 11 11 8 7 5 5 4 4 6 3 5 4 3 4 4 3 2 3 4 2 2 3 3 2 3 2 3 2 2 3 2 3 2 3 3 4 7 4 3 6 3 2 3 3 3 4 5 5 5 5 5 6 7 7
2 3 3 4 5 8 7 9 6 6 13 14 11 4 12 22 7 5 10 7 6 5 8 8 9 11 6 9 11 9 10 10 9 8 9 9 8 7 6 6 4 4 5 4 6 5 4 5 4 2 2 3 3 2 2 2 3 3 3 2 2 3 2 1 2 2 1 1 2 3 6 4 4 7 4 2 2 3 4 3 4 5 5 6 5 5 5 7
3 3 2 2 2 6 8 8 7 10 14 14 11 4 14 19 2 5 8 5 6 4 7 6 9 9 4 10 10 9 10 7 10 8 6 8 6 6 6 5 5 5 5 5 5 5 5 5 5 4 2 3 3 2 1 2 2 3 3 2 1 1 1 0 0 1 2 2 1 2 5 4 4 6 5 5 3 3 4 3 3 4 5 6 5 4 3 4
4 3 1 4 1 3 9 8 6 11 15 14 11 5 15 14 1 6 6 4 7 4 6 5 8 6 3 12 8 8 11 5 9 7 6 9 6 7 6 4 6 5 5 5 5 5 5 6 5 4 2 3 3 2 3 3 2 2 3 2 1 1 1 1 0 0 1 2 1 1 3 4 3 6 6 6 6 4 4 4 4 5 4 4 4 4 3 3
2 1 1 6 4 3 7 8 6 12 15 14 10 5 15 14 2 5 4 3 6 4 7 7 10 8 6 12 5 6 12 6 7 6 6 8 7 8 6 5 6 5 6 5 6 6 5 6 5 3 3 4 4 2 2 2 1 1 0 -1 -1 1 0 0 1 0 0 1 2 2 3 4 2 5 6 6 7 6 6 5 4 5 4 4 3 4 4 4
1 -0 -1 5 4 2 6 7 6 12 15 12 10 7 15 16 3 4 4 3 6 6 8 7 9 9 3 5 2 5 11 8 7 5 5 7 7 9 7 6 6 5 7 5 6 6 6 7 5 5 4 2 2 0 -0 0 1 0 -0 0 0 1 -0 0 1 1 2 2 2 2 3 4 3 4 6 6 7 7 7 6 4 4 3 4 4 4 5 5
2 1 -0 3 3 1 4 8 6 12 15 11 10 7 15 17 1 1 2 -1 6 6 3 2 5 5 1 2 3 5 9 9 8 5 5 5 6 8 8 7 6 6 6 5 7 7 6 8 7 5 1 0 1 2 2 1 1 2 1 1 1 1 1 1 1 1 2 2 2 3 4 5 4 5 6 6 8 8 7 7 6 5 3 4 4 5 4 3
1 2 2 0 3 3 1 5 7 12 14 13 12 4 13 22 3 4 9 0 2 1 -2 2 4 3 3 6 7 8 9 9 9 6 5 6 5 6 8 7 6 7 6 5 7 7 7 7 5 2 0 3 4 4 3 1 1 2 1 0 0 1 1 1 2 1 1 2 3 3 4 6 4 4 5 6 8 9 7 8 7 6 5 5 5 4 3 3
3 1 2 1 3 3 3 4 4 13 15 13 14 2 7 21 10 9 15 6 3 0 -2 -0 2 4 4 6 8 10 10 10 11 8 6 6 5 6 7 6 6 7 6 5 6 7 7 4 3 3 3 4 4 3 2 2 2 1 0 1 1 1 1 2 2 1 2 2 3 3 3 5 4 4 5 6 9 9 8 9 8 7 6 6 5 3 3 5
6 2 -1 3 5 1 3 4 1 12 15 11 18 8 2 13 11 8 6 2 5 5 2 -0 1 4 3 3 7 8 9 12 12 12 10 6 6 8 5 5 6 6 7 6 6 8 6 3 3 5 5 4 4 4 3 2 2 1 1 1 1 1 1 2 2 1 2 2 2 2 3 5 4 5 5 5 8 9 9 10 9 7 6 5 4 4 5 5
4 4 2 2 7 2 1 4 1 9 10 8 21 16 4 7 9 11 5 -3 1 4 4 5 3 3 3 3 6 5 6 11 11 13 15 9 9 10 5 6 8 7 7 7 6 7 5 5 7 5 5 5 4 3 3 2 2 1 2 1 1 2 1 1 2 2 2 2 3 2 3 5 5 5 5 5 7 8 10 10 8 8 7 6 5 5 6 4
2 3 5 2 8 5 1 3 1 7 8 6 20 17 5 7 6 10 11 2 -1 0 4 8 6 4 4 4 6 4 4 8 9 11 14 12 11 12 9 8 8 8 8 8 7 5 4 7 8 5 5 5 4 4 3 2 2 2 2 2 1 1 1 1 1 2 2 3 3 3 4 4 5 5 5 5 7 8 10 10 9 9 7 7 7 6 6 5
3 3 4 1 8 7 2 3 -1 4 7 5 19 18 5 7 7 6 11 9 3 0 2 6 5 6 5 2 4 4 3 7 10 10 10 11 11 11 12 11 10 9 8 8 9 6 4 6 6 5 5 5 4 5 4 3 3 2 1 1 1 1 1 2 2 3 4 4 4 4 4 3 4 5 6 6 7 8 10 10 10 10 8 7 7 6 7 6
4 5 5 1 5 7 4 3 -0 2 5 4 16 19 6 5 9 6 6 11 8 1 2 4 4 7 6 1 3 5 4 6 8 8 8 9 9 9 11 12 11 11 9 7 8 7 6 6 6 5 5 6 5 4 5 4 4 4 3 2 2 3 2 3 4 4 5 5 4 3 3 3 2 4 5 6 8 9 9 11 11 10 9 8 7 7 7 7
6 3 6 3 4 8 4 2 3 2 5 7 13 18 10 5 11 9 3 11 14 3 -0 3 3 5 6 3 4 5 5 5 6 7 7 8 8 7 9 11 10 11 12 12 10 9 8 8 8 7 6 7 6 5 5 4 4 4 4 4 4 4 4 4 5 5 5 4 3 3 3 4 3 3 7 7 8 10 9 11 12 10 10 9 8 7 7 7
7 4 5 4 5 8 4 1 2 2 4 6 10 17 12 5 12 13 6 11 18 11 2 2 3 3 6 5 4 5 3 4 7 7 6 7 9 7 6 9 9 9 11 11 11 11 10 10 9 8 8 7 6 7 7 5 6 5 4 5 6 5 4 5 4 4 5 3 3 3 3 5 4 3 7 10 10 10 9 11 11 10 10 9 9 7 6 6
5 6 5 4 6 10 7 0 -1 2 4 2 5 13 11 7 9 11 10 9 13 17 9 4 4 2 5 7 3 3 3 3 5 6 5 6 8 8 5 5 7 8 9 8 7 9 9 10 10 9 9 9 7 8 8 7 6 6 5 5 5 6 5 5 5 5 4 3 4 4 5 6 5 4 7 10 11 10 10 10 10 10 10 9 9 7 6 6
6 7 9 6 4 10 11 1 -2 2 4 3 3 6 7 8 7 9 15 9 6 16 13 5 6 3 3 8 5 1 2 1 2 4 4 3 6 8 6 5 4 4 6 5 4 4 6 7 7 7 7 8 9 9 9 8 6 4 4 5 6 6 6 6 5 4 4 4 4 5 5 6 6 6 7 9 11 11 10 9 8 9 9 9 8 8 8 7
8 6 9 8 3 9 13 5 -1 1 4 5 3 4 4 3 5 10 15 8 4 14 17 8 7 6 3 6 6 3 2 2 1 3 3 1 3 7 8 8 8 6 6 5 4 3 4 7 6 5 5 5 6 6 6 6 6 4 2 3 5 4 4 5 4 4 4 5 5 5 6 6 7 8 8 9 10 10 10 9 8 7 7 7 7 8 8 9
8 7 8 8 3 6 14 10 0 -2 4 7 3 4 4 3 8 9 9 10 8 10 15 13 11 10 6 6 6 2 1 2 2 2 4 1 -0 3 6 7 9 11 11 9 9 6 4 6 5 3 3 3 3 4 4 5 7 9 8 7 7 6 6 6 6 7 7 7 7 6 6 6 6 6 8 10 10 11 11 9 8 8 7 7 6 7 8 9
8 9 9 7 4 6 13 12 2 -2 2 6 6 3 0 6 11 5 4 12 12 8 10 14 14 12 8 4 5 3 1 3 2 1 3 3 0 -1 3 4 4 6 7 7 9 10 9 9 7 5 4 4 4 5 5 5 6 7 7 7 7 7 7 7 8 9 9 8 7 6 6 7 7 6 8 10 11 12 13 10 9 8 7 7 6 6 6 6
9 10 12 7 3 5 12 12 4 2 2 3 7 4 1 5 7 4 5 9 13 11 9 10 13 15 12 1 -2 3 4 2 2 2 3 5 4 0 -0 3 4 3 3 4 5 6 8 10 9 9 9 8 7 7 5 4 3 2 2 2 2 3 4 4 4 4 5 7 6 6 7 8 9 8 7 10 11 12 12 11 10 8 7 6 6 6 5 5
9 8 10 8 3 2 10 15 7 0 2 4 5 3 2 4 3 5 7 6 8 12 11 9 7 12 17 6 -4 -0 3 1 -0 2 4 5 6 3 -1 0 4 5 4 5 8 6 5 8 8 7 9 9 9 10 9 8 7 7 7 6 7 8 9 9 9 8 7 7 6 7 8 10 10 9 7 9 11 12 12 11 9 9 9 7 6 6 6 6
9 8 7 6 7 4 6 17 16 2 -2 3 7 6 4 4 3 5 7 6 5 6 10 12 8 9 14 13 4 -1 -2 -2 -1 1 2 3 6 5 0 -3 -1 3 3 2 7 8 6 8 10 8 9 8 7 8 9 10 10 9 9 9 9 11 10 9 9 10 9 8 8 7 7 7 7 8 9 9 11 12 13 12 10 8 9 9 9 8 8 9
6 8 9 5 7 7 4 14 21 10 0 -1 3 6 5 5 5 5 6 5 4 6 9 10 11 11 11 13 11 5 -0 -2 0 0 -3 1 6 4 1 1 -2 -2 1 -0 2 6 4 5 7 6 7 8 8 8 8 8 8 8 9 7 6 7 7 7 8 7 7 8 9 8 6 5 5 6 7 7 8 9 10 12 12 10 9 9 9 9 9 8
7 8 8 5 6 4 4 15 19 13 8 4 2 3 5 6 7 5 7 5 3 7 10 9 9 10 11 13 12 9 6 3 5 5 -1 -1 3 1 -0 2 -2 -4 -1 -0 1 3 1 2 6 5 4 5 7 8 9 8 7 8 9 7 6 7 7 7 8 8 8 7 8 9 6 5 5 5 6 6 6 6 7 8 10 11 10 8 8 8 8 8
5 9 6 4 8 3 3 15 17 9 8 8 7 6 5 7 7 6 7 7 4 4 6 9 9 8 9 11 11 10 8 6 8 9 6 3 3 2 2 3 -0 -3 -2 -2 0 3 -0 1 5 4 3 5 6 7 8 7 8 9 10 10 10 11 11 10 10 9 9 10 10 11 10 6 3 4 5 6 6 6 7 7 7 8 9 8 7 7 7 7
1 8 9 3 4 4 5 11 10 7 8 9 9 7 5 8 9 8 8 7 7 5 4 7 7 8 8 7 9 10 9 10 10 10 13 12 9 5 1 5 5 -3 -2 0 -0 1 0 0 3 5 6 5 5 6 4 4 6 6 7 8 8 9 9 9 10 8 6 7 8 11 13 7 2 3 3 3 4 4 4 4 4 5 6 6 6 6 7 6
16 9 8 7 3 1 6 8 5 8 11 9 8 7 5 5 8 11 11 8 8 6 6 6 5 7 8 6 7 5 5 8 8 10 13 15 25 24 6 3 7 -2 -4 0 -2 -2 -0 -0 1 5 7 5 4 5 3 3 5 4 5 6 5 6 5 5 8 7 6 9 7 9 14 9 1 2 4 3 2 2 2 2 2 2 2 3 4 4 4 4
34 20 6 9 8 2 5 8 6 10 12 9 8 8 6 5 5 9 11 11 10 8 6 7 5 6 6 7 8 6 6 6 2 6 5 3 24 37 15 0 1 -3 -3 1 1 -0 -1 1 4 4 4 5 6 5 3 3 5 6 6 3 3 6 3 2 6 4 4 8 4 5 14 10 2 2 3 2 2 1 2 1 1 2 1 0 1 1 1 2
32 30 11 7 10 4 4 10 9 9 12 11 8 6 6 6 5 7 9 10 12 10 8 7 6 6 5 6 8 8 9 10 6 7 7 2 9 21 17 7 1 -2 -3 0 1 -2 -5 -0 3 2 2 4 5 6 7 7 6 6 5 2 3 4 0 2 3 1 4 5 -0 5 12 6 2 4 2 0 2 1 -0 1 1 2 2 1 2 3 4 4
22 30 15 7 11 9 8 12 13 11 10 9 7 6 7 7 4 5 8 9 11 12 13 11 8 7 6 5 7 8 7 9 8 8 10 9 6 7 12 13 11 7 3 1 -2 -5 -3 1 -0 1 6 6 6 9 8 4 4 5 4 2 3 2 1 2 2 3 8 4 -1 6 9 2 1 4 -0 -2 -0 -2 -2 2 2 3 4 3 4 5 4 4
12 21 16 9 10 11 11 12 12 12 10 9 7 6 7 7 5 5 5 7 9 10 12 14 13 10 8 4 3 5 6 6 8 7 8 10 10 9 9 9 12 15 14 13 6 1 8 9 -1 -1 8 7 4 5 1 -3 0 6 5 3 4 5 4 3 5 8 6 3 6 7 4 3 4 2 -1 -2 -0 1 1 3 4 3 3 2 2 3 3 3
5 10 12 12 10 8 8 9 9 11 12 11 8 7 8 10 9 8 7 7 8 8 10 13 15 15 14 11 7 5 6 6 6 7 7 7 8 10 10 9 9 10 12 16 13 8 15 20 7 -2 3 4 2 2 2 -1 -2 2 1 -0 1 3 3 3 8 9 -1 2 13 5 -1 7 4 -1 1 -1 -2 2 2 2 3 3 3 3 3 3 4 4
3 6 7 12 13 10 9 10 10 10 11 12 10 9 10 10 10 10 9 9 10 10 10 10 12 14 16 17 15 11 9 8 7 6 6 7 6 6 8 9 9 8 8 10 11 8 11 20 17 5 -0 2 2 4 5 2 0 1 1 1 -0 -0 1 2 5 5 -2 5 12 1 -2 7 2 0 5 0 -1 4 2 2 4 3 4 5 4 4 5 6
6 8 6 7 12 12 11 14 15 12 10 9 9 10 11 11 10 10 9 9 10 11 12 12 11 12 14 16 17 17 14 12 10 8 6 7 7 6 7 8 8 9 8 8 10 9 8 15 23 17 4 -1 1 4 4 1 2 3 1 2 2 1 4 5 4 2 -0 3 5 -0 3 6 -1 2 7 2 2 4 1 2 4 2 3 5 4 5 5 4
14 9 5 5 7 6 6 12 16 16 16 14 12 13 12 12 13 13 11 11 10 9 9 9 7 6 6 9 11 13 15 16 14 14 13 11 10 9 9 9 9 10 11 10 9 9 8 10 20 26 19 6 0 2 4 1 1 2 1 2 2 3 5 6 3 0 1 3 1 2 10 8 -3 0 6 4 6 7 4 4 6 5 7 7 6 6 4 4
21 16 10 7 6 2 1 6 10 10 11 14 16 17 16 14 13 12 11 10 10 9 7 5 4 4 3 5 7 8 10 12 11 11 11 10 10 10 9 9 9 8 9 9 9 10 11 9 13 22 25 18 7 3 5 5 3 5 5 3 3 3 3 3 1 -1 1 4 1 3 13 9 -4 -2 7 8 8 9 7 5 6 6 6 5 5 5 4 4
16 20 19 13 9 7 5 5 7 5 2 4 8 11 12 11 9 9 10 10 9 11 11 9 9 11 10 8 7 6 9 12 12 12 13 12 10 8 7 8 9 9 9 8 7 7 8 9 10 12 18 20 12 5 8 9 8 11 11 5 3 4 2 2 3 2 4 6 6 8 13 8 -2 -1 4 6 6 7 7 6 5 4 2 2 2 3 3 4
Height
5674 5679 5682 5686 5690 5694 5698 5701 5705 5708 5711 5715 5718 5721 5723 5725 5728 5731 5735 5738 5741 5743 5745 5748 5752 5756 5760 5764 5768 5771 5775 5779 5782 5786 5791 5794 5798 5803 5808 5813 5818 5822 5825 5828 5832 5835 5839 5842 5844 5847 5850 5852 5855 5857 5859 5861 5864 5866 5868 5869 5871 5873 5874 5876 5877 5879 5880 5881 5882 5884 5885 5885 5886 5887 5888 5889 5890 5890 5891 5892 5893 5893 5894 5894 5895 5896 5897 5898
5672 5676 5680 5683 5687 5691 5695 5699 5702 5705 5709 5712 5716 5718 5721 5723 5726 5729 5732 5735 5738 5740 5742 5745 5749 5753 5757 5761 5765 5768 5772 5776 5780 5784 5788 5793 5797 5801 5806 5812 5817 5820 5824 5827 5831 5835 5838 5841 5844 5847 5850 5852 5855 5857 5859 5861 5863 5865 5867 5869 5871 5872 5874 5875 5877 5878 5880 5881 5882 5884 5884 5885 5886 5887 5888 5889 5890 5891 5892 5892 5893 5893 5894 5895 5895 5896 5897 5898
5669 5673 5677 5681 5685 5689 5692 5696 5699 5703 5706 5710 5713 5716 5719 5721 5724 5727 5730 5732 5735 5737 5739 5743 5746 5749 5754 5758 5762 5766 5769 5773 5777 5781 5786 5792 5797 5800 5805 5810 5815 5820 5822 5825 5829 5833 5836 5839 5842 5845 5848 5851 5854 5856 5858 5860 5862 5864 5866 5868 5870 5871 5873 5875 5877 5878 5880 5881 5882 5883 5884 5885 5886 5887 5888 5889 5890 5891 5892 5893 5893 5894 5894 5895 5896 5896 5897 5898
5666 5670 5674 5678 5682 5686 5690 5693 5697 5700 5704 5708 5711 5714 5716 5719 5722 5724 5728 5730 5733 5735 5737 5740 5743 5746 5750 5755 5759 5763 5767 5771 5774 5778 5784 5790 5796 5800 5804 5809 5814 5819 5821 5823 5827 5830 5833 5837 5840 5843 5846 5849 5852 5855 5857 5859 5861 5863 5866 5868 5869 5871 5873 5875 5876 5877 5879 5881 5882 5883 5884 5885 5886 5887 5888 5889 5890 5891 5892 5893 5893 5894 5895 5895 5896 5896 5897 5898
5663 5667 5671 5675 5679 5683 5687 5691 5695 5698 5702 5705 5708 5711 5714 5717 5720 5722 5726 5728 5731 5733 5735 5737 5740 5743 5747 5752 5756 5760 5764 5768 5771 5776 5783 5788 5794 5799 5803 5807 5813 5817 5820 5823 5825 5829 5832 5836 5839 5842 5844 5848 5851 5854 5856 5858 5860 5863 5865 5867 5869 5870 5872 5874 5876 5876 5878 5880 5882 5883 5884 5885 5886 5887 5888 5889 5889 5890 5891 5892 5893 5894 5894 5895 5896 5896 5897 5898
5660 5664 5669 5673 5677 5681 5685 5689 5692 5696 5700 5703 5706 5709 5712 5715 5718 5721 5724 5727 5729 5731 5733 5735 5738 5741 5745 5749 5753 5757 5762 5766 5770 5776 5781 5787 5792 5797 5802 5806 5811 5815 5819 5822 5825 5828 5831 5834 5838 5841 5844 5847 5850 5853 5856 5858 5860 5862 5864 5866 5868 5870 5871 5873 5875 5876 5877 5879 5881 5882 5883 5885 5886 5887 5887 5888 5889 5890 5891 5892 5893 5893 5894 5895 5895 5896 5897 5897
5657 5661 5666 5670 5674 5678 5682 5686 5690 5693 5697 5701 5704 5707 5710 5713 5716 5719 5722 5725 5727 5729 5731 5734 5736 5739 5743 5747 5751 5755 5759 5764 5769 5776 5781 5786 5791 5795 5800 5804 5809 5813 5817 5821 5825 5828 5831 5834 5837 5840 5843 5846 5849 5852 5854 5857 5859 5861 5863 5866 5867 5869 5871 5872 5874 5875 5876 5878 5880 5881 5883 5884 5885 5886 5887 5888 5889 5890 5891 5892 5892 5893 5894 5894 5895 5895 5896 5897
5654 5659 5663 5667 5672 5676 5680 5684 5687 5691 5695 5698 5701 5705 5708 5711 5714 5717 5720 5723 5725 5727 5730 5732 5735 5738 5741 5745 5749 5753 5757 5762 5768 5775 5780 5785 5790 5794 5799 5803 5807 5811 5815 5820 5824 5827 5831 5834 5837 5839 5842 5845 5848 5851 5853 5855 5858 5860 5862 5864 5866 5868 5870 5871 5873 5874 5875 5877 5879 5881 5882 5883 5884 5886 5887 5888 5889 5889 5890 5891 5892 5892 5893 5894 5894 5895 5895 5896
5651 5656 5661 5665 5669 5674 5677 5681 5685 5689 5693 5696 5699 5703 5706 5709 5712 5715 5718 5721 5723 5726 5729 5731 5734 5736 5739 5743 5747 5751 5756 5761 5767 5773 5778 5783 5788 5793 5798 5802 5806 5810 5814 5818 5822 5825 5829 5832 5836 5839 5842 5844 5847 5850 5852 5854 5856 5859 5861 5863 5865 5867 5869 5870 5872 5873 5874 5876 5878 5880 5881 5882 5884 5885 5886 5887 5888 5889 5890 5891 5891 5892 5893 5893 5894 5894 5895 5895
5649 5654 5658 5663 5667 5671 5675 5679 5683 5687 5690 5694 5697 5701 5704 5707 5710 5714 5716 5719 5722 5725 5727 5730 5733 5735 5738 5741 5746 5750 5755 5760 5766 5771 5776 5781 5786 5792 5796 5801 5805 5809 5813 5816 5820 5824 5827 5831 5834 5837 5840 5842 5845 5847 5850 5852 5855 5857 5859 5861 5864 5866 5867 5869 5871 5872 5874 5875 5877 5879 5880 5882 5883 5884 5885 5886 5887 5888 5889 5890 5891 5891 5892 5893 5893 5894 5894 5895
5647 5652 5656 5660 5665 5669 5673 5677 5681 5685 5688 5691 5695 5699 5702 5705 5709 5712 5714 5717 5720 5723 5726 5729 5732 5735 5738 5741 5745 5750 5754 5759 5765 5769 5774 5779 5784 5790 5795 5799 5803 5807 5811 5815 5819 5823 5826 5829 5832 5835 5837 5840 5843 5845 5848 5850 5853 5855 5857 5860 5862 5864 5866 5868 5870 5872 5873 5875 5876 5878 5879 5881 5882 5883 5884 5885 5886 5887 5888 5889 5890 5891 5892 5892 5893 5893 5894 5894
5645 5650 5654 5658 5662 5666 5670 5674 5678 5682 5686 5689 5693 5697 5700 5703 5707 5710 5713 5716 5718 5722 5725 5728 5731 5734 5737 5741 5744 5748 5752 5758 5763 5768 5773 5778 5782 5787 5792 5797 5801 5805 5809 5812 5816 5820 5823 5827 5830 5833 5835 5838 5841 5843 5845 5848 5851 5853 5855 5858 5860 5862 5864 5866 5868 5870 5872 5874 5875 5876 5878 5879 5881 5882 5883 5884 5885 5886 5887 5888 5890 5891 5891 5892 5892 5893 5893 5893
5643 5647 5651 5656 5660 5664 5668 5672 5676 5679 5683 5687 5691 5694 5698 5702 5705 5708 5711 5714 5717 5720 5724 5727 5730 5733 5737 5740 5743 5746 5752 5757 5762 5767 5771 5776 5781 5785 5790 5795 5799 5803 5806 5810 5814 5817 5821 5824 5828 5831 5834 5837 5839 5841 5844 5847 5849 5851 5854 5856 5858 5860 5863 5865 5867 5869 5871 5873 5874 5875 5877 5878 5879 5881 5882 5882 5884 5885 5886 5888 5889 5890 5891 5891 5892 5892 5893 5892
5640 5644 5649 5653 5658 5662 5666 5669 5673 5677 5681 5684 5688 5692 5696 5699 5703 5705 5709 5712 5715 5719 5722 5726 5729 5732 5736 5739 5742 5746 5751 5755 5760 5765 5770 5775 5780 5784 5788 5793 5797 5801 5804 5808 5811 5815 5818 5822 5825 5829 5832 5835 5837 5840 5843 5845 5847 5849 5852 5854 5856 5859 5862 5864 5865 5868 5870 5871 5873 5874 5876 5877 5878 5880 5880 5881 5883 5884 5885 5887 5888 5889 5890 5890 5891 5892 5892 5892
5637 5642 5646 5651 5655 5659 5663 5667 5671 5675 5678 5682 5686 5690 5694 5697 5700 5703 5706 5710 5714 5717 5721 5725 5728 5731 5735 5738 5741 5746 5750 5755 5759 5764 5768 5773 5777 5782 5787 5791 5795 5799 5802 5806 5809 5813 5816 5819 5823 5826 5830 5833 5835 5838 5840 5843 5845 5848 5850 5852 5855 5858 5861 5862 5864 5866 5868 5870 5871 5873 5875 5876 5877 5878 5879 5880 5881 5882 5884 5885 5886 5887 5888 5889 5890 5891 5891 5891
5635 5640 5644 5649 5653 5657 5661 5665 5668 5672 5676 5680 5684 5687 5691 5694 5698 5701 5704 5708 5712 5716 5719 5724 5727 5731 5734 5737 5741 5746 5750 5754 5758 5762 5767 5771 5775 5780 5784 5788 5792 5796 5800 5804 5807 5811 5814 5817 5820 5824 5828 5831 5833 5836 5839 5841 5843 5846 5849 5852 5855 5857 5859 5861 5863 5865 5866 5868 5869 5871 5873 5874 5875 5876 5878 5879 5879 5880 5882 5883 5885 5886 5887 5888 5889 5889 5890 5890
5633 5638 5642 5646 5650 5655 5659 5662 5666 5669 5673 5677 5681 5684 5688 5692 5695 5698 5702 5706 5710 5714 5718 5722 5726 5729 5732 5736 5741 5746 5750 5754 5758 5762 5766 5769 5773 5777 5782 5786 5790 5794 5798 5802 5806 5809 5812 5815 5819 5823 5826 5829 5831 5834 5836 5838 5841 5845 5849 5852 5854 5856 5857 5859 5861 5862 5864 5866 5867 5869 5871 5873 5873 5875 5876 5877 5878 5879 5880 5881 5883 5884 5885 5886 5886 5887 5888 5888
5631 5635 5640 5644 5648 5653 5656 5660 5663 5667 5670 5673 5677 5681 5685 5689 5693 5696 5700 5704 5708 5712 5715 5719 5723 5727 5731 5736 5741 5746 5749 5753 5757 5760 5764 5768 5772 5776 5780 5784 5788 5792 5796 5799 5803 5807 5810 5813 5817 5820 5823 5826 5829 5832 5835 5839 5843 5846 5849 5851 5852 5854 5855 5857 5858 5860 5862 5864 5865 5867 5870 5871 5871 5873 5874 5875 5877 5878 5879 5880 5881 5882 5883 5883 5884 5884 5886 5886
5628 5633 5637 5642 5646 5650 5654 5658 5661 5664 5667 5671 5675 5679 5683 5687 5691 5695 5699 5703 5707 5710 5713 5718 5723 5727 5733 5737 5741 5744 5747 5751 5755 5759 5762 5766 5770 5774 5777 5781 5785 5789 5793 5798 5801 5805 5808 5811 5814 5817 5821 5825 5828 5832 5836 5840 5842 5843 5845 5847 5848 5850 5852 5854 5855 5857 5860 5862 5863 5865 5867 5868 5869 5871 5872 5873 5875 5876 5877 5878 5879 5879 5880 5881 5881 5882 5883 5884
5625 5630 5635 5639 5644 5648 5652 5655 5658 5662 5665 5670 5674 5677 5681 5685 5689 5693 5697 5702 5707 5711 5715 5720 5723 5728 5732 5735 5738 5741 5745 5749 5753 5757 5760 5764 5768 5772 5775 5779 5783 5786 5790 5795 5799 5803 5807 5810 5814 5818 5822 5825 5828 5831 5834 5836 5837 5839 5841 5843 5845 5847 5850 5852 5854 5856 5858 5859 5861 5863 5865 5866 5867 5869 5870 5871 5873 5874 5875 5876 5876 5877 5878 5878 5879 5880 5881 5881
5622 5627 5632 5637 5641 5645 5649 5653 5657 5660 5664 5668 5672 5676 5682 5686 5690 5694 5697 5700 5705 5710 5715 5718 5722 5725 5729 5733 5736 5740 5743 5747 5750 5754 5757 5761 5765 5769 5772 5777 5781 5785 5789 5792 5796 5800 5804 5809 5814 5817 5820 5822 5825 5827 5830 5832 5834 5836 5839 5840 5843 5845 5848 5850 5852 5854 5856 5857 5859 5861 5863 5865 5865 5866 5867 5869 5871 5872 5872 5873 5874 5875 5875 5876 5877 5877 5878 5878
5620 5624 5629 5634 5638 5643 5647 5651 5655 5658 5662 5667 5671 5676 5681 5686 5690 5695 5698 5700 5704 5707 5711 5715 5719 5723 5727 5731 5734 5738 5741 5745 5749 5752 5755 5759 5763 5767 5771 5775 5779 5783 5787 5791 5794 5797 5802 5806 5810 5813 5815 5818 5821 5823 5826 5829 5831 5833 5835 5838 5840 5843 5845 5847 5849 5851 5853 5854 5856 5858 5860 5862 5862 5863 5865 5866 5868 5870 5870 5871 5872 5872 5873 5874 5874 5875 5876 5876
5617 5622 5627 5631 5636 5640 5645 5649 5653 5657 5661 5666 5670 5674 5678 5682 5687 5691 5695 5699 5702 5706 5709 5712 5715 5719 5724 5728 5732 5735 5739 5743 5747 5751 5754 5758 5761 5765 5769 5773 5777 5781 5785 5790 5793 5797 5801 5805 5807 5810 5813 5816 5818 5821 5823 5826 5828 5831 5833 5835 5838 5841 5843 5845 5846 5848 5850 5851 5853 5855 5857 5859 5860 5860 5862 5863 5866 5867 5867 5868 5869 5869 5870 5871 5872 5873 5873 5874
5614 5619 5624 5629 5633 5638 5642 5646 5651 5655 5659 5664 5667 5671 5675 5679 5682 5686 5690 5695 5698 5703 5707 5710 5713 5716 5720 5724 5728 5732 5736 5740 5744 5749 5753 5756 5760 5763 5767 5771 5775 5779 5783 5787 5791 5796 5799 5802 5805 5808 5811 5813 5816 5818 5821 5823 5826 5829 5831 5833 5836 5838 5840 5841 5843 5845 5846 5848 5850 5852 5854 5856 5857 5858 5859 5860 5862 5864 5864 5865 5865 5866 5867 5868 5870 5871 5871 5872
5612 5617 5621 5626 5630 5635 5640 5644 5649 5653 5657 5661 5665 5669 5672 5675 5678 5682 5686 5690 5694 5697 5702 5706 5710 5713 5716 5721 5726 5730 5733 5737 5741 5744 5749 5754 5758 5762 5765 5769 5773 5777 5781 5785 5788 5791 5794 5797 5802 5805 5808 5810 5813 5816 5819 5821 5824 5826 5829 5831 5833 5835 5837 5838 5840 5842 5843 5845 5847 5849 5850 5853 5855 5855 5856 5857 5859 5861 5861 5862 5862 5863 5865 5866 5867 5868 5869 5870
5609 5614 5618 5623 5628 5632 5637 5642 5647 5651 5655 5658 5662 5666 5668 5672 5675 5678 5682 5686 5689 5693 5698 5702 5706 5710 5715 5718 5722 5726 5730 5733 5737 5742 5746 5750 5755 5759 5763 5767 5771 5775 5778 5781 5783 5786 5790 5794 5797 5800 5803 5806 5809 5812 5815 5818 5821 5824 5826 5828 5830 5832 5833 5835 5837 5838 5840 5842 5844 5846 5846 5849 5852 5853 5853 5855 5856 5857 5858 5858 5859 5860 5862 5863 5864 5865 5866 5867
5606 5611 5615 5620 5625 5630 5636 5641 5645 5649 5653 5656 5660 5663 5666 5668 5671 5674 5678 5681 5684 5689 5694 5698 5702 5707 5712 5716 5719 5723 5727 5731 5735 5739 5743 5747 5752 5756 5760 5765 5769 5772 5775 5777 5780 5784 5788 5791 5794 5796 5799 5802 5806 5810 5812 5815 5818 5821 5823 5825 5827 5828 5830 5831 5833 5835 5837 5839 5841 5842 5843 5845 5849 5851 5851 5852 5852 5853 5854 5855 5856 5858 5859 5860 5861 5862 5863 5864
5602 5607 5612 5617 5622 5628 5634 5638 5643 5648 5651 5654 5658 5660 5662 5664 5667 5670 5673 5675 5679 5685 5690 5694 5699 5704 5709 5713 5716 5721 5726 5731 5734 5737 5741 5745 5749 5753 5757 5761 5765 5768 5771 5775 5780 5783 5786 5789 5791 5794 5797 5801 5805 5808 5810 5813 5815 5817 5819 5821 5823 5825 5826 5828 5830 5832 5834 5835 5837 5839 5840 5841 5844 5848 5848 5848 5849 5849 5850 5852 5854 5855 5856 5857 5858 5859 5860 5860
5599 5604 5609 5614 5619 5625 5630 5636 5641 5644 5646 5651 5654 5656 5658 5660 5663 5665 5666 5670 5676 5683 5687 5692 5697 5701 5706 5710 5714 5719 5724 5728 5732 5736 5740 5743 5746 5750 5754 5757 5760 5763 5767 5772 5776 5779 5782 5785 5788 5791 5795 5798 5802 5804 5806 5809 5810 5813 5815 5817 5819 5821 5823 5825 5826 5829 5830 5832 5834 5836 5837 5838 5840 5845 5845 5845 5846 5846 5847 5849 5851 5852 5853 5854 5855 5856 5856 5857
5596 5601 5606 5611 5617 5622 5627 5633 5636 5638 5642 5647 5650 5653 5654 5655 5657 5658 5660 5666 5674 5681 5686 5690 5695 5699 5703 5708 5712 5716 5721 5725 5730 5734 5737 5740 5744 5748 5751 5754 5756 5760 5764 5767 5771 5774 5777 5780 5783 5786 5790 5793 5796 5798 5801 5803 5805 5808 5810 5813 5815 5817 5819 5821 5823 5825 5826 5828 5831 5833 5835 5835 5836 5840 5842 5842 5843 5843 5844 5845 5847 5848 5850 5851 5852 5853 5853 5853
5592 5598 5602 5608 5614 5619 5624 5628 5631 5635 5639 5643 5646 5648 5649 5651 5652 5653 5659 5668 5674 5678 5683 5688 5693 5697 5702 5707 5711 5714 5718 5722 5726 5729 5733 5738 5741 5744 5747 5750 5753 5756 5760 5763 5767 5770 5773 5776 5779 5782 5786 5789 5791 5793 5796 5798 5801 5804 5807 5809 5811 5813 5815 5817 5820 5822 5823 5825 5828 5830 5832 5832 5833 5836 5838 5839 5840 5840 5841 5841 5843 5844 5846 5847 5848 5849 5849 5849
5588 5594 5599 5605 5610 5615 5620 5623 5628 5632 5635 5638 5641 5643 5645 5647 5647 5651 5661 5668 5670 5675 5682 5687 5692 5697 5701 5705 5708 5712 5716 5719 5722 5726 5730 5734 5738 5742 5745 5748 5752 5755 5758 5761 5764 5767 5770 5773 5776 5779 5782 5784 5787 5789 5792 5795 5798 5800 5803 5805 5807 5809 5812 5814 5816 5818 5820 5823 5825 5826 5828 5829 5831 5832 5833 5835 5836 5837 5838 5838 5839 5840 5842 5843 5844 5845 5845 5846
5584 5590 5595 5600 5606 5610 5615 5619 5624 5628 5631 5634 5636 5639 5642 5643 5644 5652 5660 5663 5667 5675 5683 5687 5692 5696 5698 5701 5704 5708 5712 5716 5720 5723 5727 5731 5734 5738 5742 5746 5750 5753 5758 5761 5764 5766 5768 5770 5773 5776 5779 5782 5784 5787 5790 5793 5796 5798 5801 5803 5805 5807 5809 5811 5813 5815 5817 5819 5821 5823 5824 5826 5828 5828 5828 5831 5833 5835 5836 5836 5836 5837 5838 5839 5839 5840 5841 5842
5580 5585 5591 5596 5602 5606 5610 5615 5619 5623 5627 5630 5633 5636 5638 5640 5645 5652 5656 5660 5667 5674 5680 5684 5688 5692 5694 5697 5701 5704 5708 5712 5716 5720 5723 5726 5729 5733 5738 5742 5746 5750 5754 5757 5760 5763 5767 5770 5773 5776 5778 5780 5783 5785 5788 5790 5792 5794 5796 5798 5801 5803 5805 5807 5809 5811 5813 5815 5817 5819 5821 5823 5825 5825 5825 5827 5829 5831 5833 5833 5833 5834 5834 5834 5835 5835 5837 5838
5576 5581 5587 5592 5597 5602 5606 5611 5615 5619 5622 5626 5629 5631 5635 5639 5644 5648 5651 5659 5666 5670 5676 5681 5684 5687 5690 5693 5697 5700 5704 5708 5712 5716 5719 5722 5726 5731 5735 5739 5743 5747 5750 5752 5756 5759 5763 5766 5770 5773 5775 5778 5780 5781 5784 5785 5787 5789 5792 5794 5797 5799 5801 5803 5805 5807 5810 5812 5813 5815 5817 5820 5821 5820 5821 5823 5825 5827 5829 5830 5830 5830 5830 5830 5831 5831 5832 5834
5572 5577 5582 5588 5593 5598 5602 5607 5611 5614 5618 5622 5624 5628 5634 5638 5641 5645 5651 5658 5663 5667 5672 5676 5678 5681 5685 5689 5693 5696 5701 5705 5709 5712 5716 5719 5723 5727 5731 5736 5740 5744 5747 5751 5754 5757 5760 5763 5766 5768 5770 5772 5774 5776 5779 5781 5783 5786 5788 5792 5795 5797 5798 5799 5801 5803 5805 5807 5808 5811 5814 5817 5817 5817 5818 5820 5822 5823 5825 5826 5826 5826 5826 5826 5827 5828 5829 5830
5568 5573 5578 5584 5589 5593 5598 5603 5606 5610 5615 5618 5622 5626 5632 5634 5638 5645 5650 5655 5660 5663 5668 5672 5674 5677 5681 5686 5690 5694 5698 5702 5704 5708 5712 5716 5719 5723 5728 5731 5735 5740 5744 5748 5751 5754 5757 5760 5762 5764 5766 5768 5770 5772 5774 5777 5779 5782 5785 5789 5791 5792 5793 5795 5796 5798 5800 5802 5804 5808 5811 5813 5814 5814 5815 5816 5818 5819 5820 5821 5822 5822 5822 5822 5823 5825 5826 5827
5564 5570 5575 5580 5585 5589 5594 5598 5602 5606 5611 5615 5619 5624 5627 5630 5635 5642 5647 5651 5655 5658 5663 5668 5672 5676 5680 5684 5688 5692 5696 5698 5701 5705 5709 5712 5716 5721 5725 5728 5732 5736 5739 5743 5746 5749 5752 5755 5757 5759 5761 5764 5766 5767 5769 5772 5775 5778 5781 5785 5785 5785 5788 5791 5792 5794 5797 5799 5801 5805 5808 5810 5811 5812 5812 5812 5813 5814 5815 5817 5818 5818 5818 5818 5819 5821 5821 5823
5561 5567 5571 5576 5580 5584 5589 5593 5597 5602 5606 5611 5616 5619 5623 5628 5633 5638 5643 5646 5650 5655 5659 5664 5669 5674 5677 5681 5686 5690 5692 5696 5699 5703 5707 5710 5714 5720 5724 5726 5729 5732 5735 5738 5741 5744 5747 5749 5751 5754 5757 5758 5760 5762 5765 5769 5772 5774 5776 5779 5780 5782 5785 5787 5789 5791 5794 5795 5798 5801 5803 5806 5808 5809 5808 5808 5809 5810 5812 5813 5813 5814 5814 5815 5816 5817 5818 5819
5558 5563 5567 5572 5576 5580 5585 5589 5593 5597 5602 5607 5612 5615 5620 5624 5628 5633 5638 5641 5645 5650 5655 5660 5666 5670 5674 5678 5682 5685 5689 5693 5697 5701 5704 5708 5713 5717 5721 5724 5726 5729 5731 5734 5736 5739 5742 5744 5747 5749 5751 5753 5755 5759 5763 5766 5767 5769 5772 5775 5777 5780 5782 5784 5785 5787 5790 5791 5793 5795 5798 5801 5804 5804 5804 5805 5806 5806 5807 5809 5809 5809 5810 5811 5812 5813 5814 5815
5555 5559 5564 5568 5572 5576 5581 5584 5588 5594 5599 5604 5608 5611 5616 5620 5623 5628 5633 5637 5642 5647 5652 5657 5661 5666 5670 5674 5677 5681 5685 5688 5693 5696 5700 5704 5709 5713 5718 5722 5724 5726 5727 5729 5732 5735 5738 5740 5742 5744 5746 5750 5753 5756 5759 5761 5762 5765 5768 5771 5774 5776 5777 5778 5780 5783 5786 5787 5788 5789 5792 5797 5799 5799 5801 5802 5802 5802 5803 5804 5805 5805 5807 5808 5808 5809 5810 5811
5553 5556 5560 5564 5569 5573 5577 5581 5586 5591 5595 5599 5604 5607 5611 5616 5619 5623 5629 5633 5638 5642 5647 5652 5656 5660 5665 5669 5673 5677 5680 5684 5688 5691 5695 5701 5705 5709 5713 5717 5719 5721 5723 5725 5728 5731 5734 5736 5737 5739 5742 5745 5747 5750 5753 5755 5757 5760 5763 5766 5768 5770 5772 5774 5777 5780 5782 5782 5784 5785 5787 5792 5795 5795 5797 5798 5798 5799 5799 5799 5800 5800 5802 5803 5804 5805 5805 5805
5550 5554 5557 5562 5566 5569 5573 5577 5582 5587 5591 5595 5600 5603 5607 5612 5615 5619 5625 5629 5633 5638 5642 5646 5651 5655 5660 5664 5668 5672 5676 5679 5682 5687 5692 5697 5700 5703 5705 5709 5713 5715 5716 5719 5722 5726 5728 5729 5731 5734 5736 5738 5741 5744 5746 5749 5751 5754 5758 5763 5764 5767 5770 5772 5773 5775 5775 5777 5780 5780 5782 5788 5791 5792 5793 5794 5794 5794 5794 5794 5794 5794 5796 5797 5798 5799 5799 5799
5546 5551 5555 5559 5561 5565 5569 5574 5579 5583 5587 5592 5596 5599 5603 5609 5612 5615 5621 5625 5629 5633 5637 5642 5647 5651 5656 5660 5663 5668 5671 5674 5677 5682 5687 5690 5694 5697 5699 5703 5706 5708 5711 5715 5718 5721 5722 5723 5725 5727 5729 5731 5733 5736 5739 5742 5746 5751 5756 5759 5761 5763 5765 5765 5767 5769 5769 5774 5776 5775 5779 5786 5788 5788 5788 5788 5788 5788 5788 5788 5788 5788 5789 5790 5790 5791 5792 5793
5542 5547 5551 5554 5557 5561 5566 5571 5576 5580 5584 5588 5592 5596 5600 5605 5608 5612 5617 5621 5625 5629 5634 5638 5642 5647 5652 5655 5659 5662 5665 5669 5673 5677 5681 5685 5689 5691 5693 5696 5700 5703 5706 5709 5712 5714 5714 5715 5718 5720 5721 5724 5728 5732 5737 5742 5746 5749 5752 5755 5757 5759 5760 5761 5763 5763 5765 5770 5771 5772 5777 5782 5782 5782 5782 5781 5781 5781 5781 5781 5782 5782 5783 5783 5783 5783 5784 5785
5538 5541 5545 5549 5553 5557 5562 5568 5573 5577 5581 5585 5589 5593 5596 5601 5605 5609 5613 5617 5621 5625 5630 5634 5638 5643 5647 5650 5654 5657 5661 5666 5669 5673 5677 5680 5683 5686 5688 5691 5694 5696 5699 5702 5704 5705 5706 5708 5712 5714 5717 5722 5727 5731 5736 5740 5741 5743 5746 5749 5751 5752 5754 5756 5754 5756 5762 5765 5764 5768 5773 5775 5776 5776 5774 5773 5773 5774 5775 5775 5775 5775 5776 5776 5776 5777 5778 5779
5534 5537 5541 5544 5548 5552 5558 5564 5569 5574 5579 5582 5586 5590 5594 5597 5601 5604 5608 5613 5617 5621 5625 5629 5634 5638 5642 5646 5650 5653 5657 5661 5664 5668 5672 5674 5677 5680 5683 5685 5687 5690 5693 5695 5696 5697 5698 5702 5707 5710 5714 5719 5723 5725 5729 5731 5733 5735 5738 5740 5742 5744 5745 5746 5746 5752 5757 5755 5756 5764 5767 5768 5770 5769 5767 5768 5767 5767 5769 5768 5769 5770 5770 5770 5771 5772 5772 5772
5531 5534 5537 5541 5545 5549 5555 5560 5566 5571 5574 5577 5581 5585 5589 5592 5596 5600 5605 5609 5613 5617 5621 5625 5629 5633 5638 5642 5645 5648 5652 5655 5658 5662 5665 5668 5672 5674 5676 5679 5681 5684 5687 5688 5689 5691 5693 5697 5703 5707 5710 5714 5716 5718 5722 5725 5727 5729 5731 5733 5736 5737 5737 5739 5743 5748 5750 5749 5754 5761 5761 5762 5765 5762 5763 5764 5761 5762 5763 5762 5764 5765 5764 5764 5765 5765 5766 5765
5527 5531 5534 5538 5543 5548 5553 5558 5562 5565 5568 5572 5576 5580 5584 5588 5593 5598 5601 5604 5609 5613 5617 5622 5626 5629 5633 5636 5640 5643 5645 5649 5653 5656 5659 5663 5665 5668 5670 5673 5674 5678 5680 5682 5684 5686 5688 5693 5697 5700 5704 5708 5709 5712 5716 5718 5719 5722 5725 5727 5729 5731 5732 5736 5740 5744 5744 5745 5750 5753 5753 5757 5760 5758 5760 5760 5756 5758 5758 5756 5758 5760 5758 5758 5758 5757 5758 5757
5522 5526 5530 5535 5540 5544 5549 5553 5556 5559 5563 5567 5570 5575 5580 5584 5589 5593 5596 5600 5605 5609 5614 5619 5622 5625 5628 5631 5635 5637 5640 5643 5647 5650 5653 5656 5659 5662 5664 5666 5670 5672 5674 5676 5678 5680 5684 5688 5691 5694 5697 5700 5702 5707 5710 5710 5712 5714 5717 5719 5722 5725 5728 5732 5736 5738 5738 5739 5744 5744 5746 5753 5757 5754 5755 5754 5752 5754 5754 5752 5752 5751 5750 5750 5750 5749 5750 5750
5519 5522 5527 5531 5535 5540 5544 5548 5551 5555 5558 5562 5567 5572 5576 5580 5585 5589 5592 5596 5600 5604 5609 5613 5616 5619 5622 5625 5629 5632 5634 5637 5640 5643 5646 5649 5652 5655 5658 5660 5664 5666 5668 5670 5672 5675 5679 5682 5685 5689 5689 5692 5698 5700 5701 5703 5704 5704 5706 5712 5718 5722 5725 5729 5731 5732 5731 5734 5737 5736 5740 5750 5752 5748 5748 5749 5747 5747 5748 5747 5745 5743 5742 5742 5741 5742 5743 5743
5515 5519 5523 5527 5531 5535 5539 5543 5547 5550 5554 5559 5564 5568 5572 5577 5582 5584 5586 5590 5594 5599 5604 5607 5610 5613 5615 5620 5624 5626 5627 5631 5634 5636 5639 5642 5645 5648 5651 5654 5657 5659 5662 5664 5666 5670 5674 5676 5680 5682 5682 5687 5692 5692 5694 5696 5691 5691 5702 5713 5717 5719 5722 5723 5722 5724 5726 5728 5728 5729 5736 5744 5743 5739 5740 5741 5740 5741 5742 5741 5738 5735 5735 5735 5735 5736 5736 5736